TIME,DELAY(SENSOR),PRES,OXYGEN,RAWTEMP,T(OPTODE),TCPHASE,FLUOR,BETA(BETA700),BETA(BETA412),BETA(BETA440),CDOM,C(CSC),ED(ED412.20),ED(ED444.00),ED(ED489.60),ED(ED554.30),LU(LU412.10),LU(LU443.90),LU(LU489.70),LU(LU554.70),COMP,TILTX,TILTY,CHECK
1353035852,5807,898.3599853515625000,31.9875602722167970,560.3472290039062000,4.4751338958740230,56.7677993774414060,55,100,100,78,83,15549,0,0,0,0,2147124745,2147773888,2147573705,2147568219,426,3,13,50856
1353039448,5809,960.4099731445312000,37.3048591613769500,567.2595214843750000,4.2606930732727050,55.9974708557128900,55,98,101,78,82,15549,0,0,0,0,2147122358,2147776777,2147572854,2147567972,784,3,13,50270
1353043048,5813,972.9199829101562000,39.1100692749023440,569.4799194335938000,4.1917228698730470,55.7453804016113300,55,99,99,77,82,15545,0,0,0,0,2147122130,2147775332,2147576256,2147566957,209,3,13,46188
1353046648,5808,986.0900268554688000,38.7826995849609400,569.4445190429688000,4.1928229331970215,55.7901802062988300,55,98,100,77,81,15542,0,0,0,0,2147123611,2147777462,2147569444,2147569673,353,3,13,60611
1353050248,5811,991.6199951171875000,38.2589111328125000,568.9196166992188000,4.2091307640075680,55.8678894042968750,55,100,100,77,83,15544,0,0,0,0,2147122212,2147773138,2147573915,2147566482,251,3,13,28107
1353053848,5810,992.3499755859375000,38.3496894836425800,569.3032836914062000,4.1972079277038570,55.8591194152832000,55,99,100,78,82,15544,0,0,0,0,2147122989,2147774976,2147576484,2147567369,117,3,13,50559
1353057448,5809,993.3900146484375000,38.6990089416503900,569.5213012695312000,4.1904349327087400,55.8080787658691400,55,98,101,77,82,15545,0,0,0,0,2147122724,2147775670,2147571474,2147568987,3594,3,13,52834
1353061048,5806,992.2500000000000000,38.3490905761718750,569.7399902343750000,4.1836400032043460,55.8625907897949200,55,98,99,77,82,15540,0,0,0,0,2147120457,2147774966,2147573824,2147566948,140,3,13,29805
1353064648,5813,991.2500000000000000,38.1939582824707000,569.8494262695312000,4.1802430152893070,55.8888015747070300,55,98,100,78,82,15543,0,0,0,0,2147125449,2147774784,2147572626,2147569856,3453,3,13,20028
1353068248,5810,989.6900024414062000,38.4322090148925800,570.1486206054688000,4.1709418296813965,55.8552207946777340,54,98,100,78,82,15543,0,0,0,0,2147121142,2147774208,2147574601,2147569673,3364,3,13,15669
1353071848,5810,985.1400146484375000,38.3743782043457000,570.1663208007812000,4.1703929901123050,55.8586807250976560,54,98,101,77,82,15543,0,0,0,0,2147121993,2147779840,2147573632,2147569718,2991,3,13,59076
1353075448,5812,987.2999877929688000,39.2287712097168000,571.2321166992188000,4.1372680664062500,55.7415809631347660,56,99,101,78,82,15543,0,0,0,0,2147121965,2147771611,2147571136,2147566939,3234,3,13,22542
1353079048,5811,988.0800170898438000,39.2027587890625000,571.3413085937500000,4.1338710784912110,55.7487602233886700,55,97,101,78,82,15541,0,0,0,0,2147123565,2147776822,2147569645,2147567606,3146,3,13,25305
1353082648,5808,993.9899902343750000,39.3840789794921900,571.2191772460938000,4.1376671791076660,55.7171516418457000,55,98,101,77,83,15541,0,0,0,0,2147123355,2147775012,2147575177,2147566454,171,3,13,12692
1353086248,5809,990.2999877929688000,39.4107017517089840,571.5598144531250000,4.1270809173583980,55.7190895080566400,55,99,101,77,82,15543,0,0,0,0,2147121490,2147780416,2147575853,2147572169,3197,3,13,1981
1353089848,5810,991.4799804687500000,38.8992309570312500,571.8344116210938000,4.1185421943664550,55.8041305541992200,54,99,100,78,82,15541,0,0,0,0,2147125824,2147773312,2147578093,2147568987,422,3,13,56680
1353093448,5810,992.0100097656250000,39.2676582336425800,571.3969116210938000,4.1321449279785160,55.7368583679199200,55,99,101,77,82,15541,0,0,0,0,2147120950,2147773778,2147577846,2147569362,3321,3,13,45439
1353097048,5808,1001.0300292968750000,39.0005111694335940,570.5684814453125000,4.1578941345214840,55.7697486877441400,55,98,100,79,82,15539,0,0,0,0,2147124827,2147776978,2147576987,2147572617,3488,3,13,18664
1353100648,5810,1001.9699707031250000,38.4395484924316400,569.9332885742188000,4.1776309013366700,55.8509597778320300,55,100,99,78,83,15540,0,0,0,0,2147123245,2147774665,2147571885,2147567177,3432,3,13,45262
1353104248,5809,1002.8400268554688000,38.2803192138671900,569.8967895507812000,4.1787681579589840,55.8754501342773440,55,98,100,77,82,15534,0,0,0,0,2147123254,2147767158,2147573184,2147571867,3510,3,13,64355
1353107848,5811,1004.2700195312500000,37.8547096252441400,569.6101074218750000,4.1876769065856930,55.9321098327636700,54,99,100,78,84,15535,0,0,0,0,2147120393,2147777773,2147574866,2147566683,49,3,13,31349
1353111448,5810,1009.0399780273438000,37.8319702148437500,568.9722900390625000,4.2074928283691410,55.9318199157714840,56,97,100,78,83,15536,0,0,0,0,2147123894,2147774637,2147576036,2147570505,3261,3,13,57245
1353115048,5813,1004.1500244140625000,37.5679588317871100,569.8809204101562000,4.1792621612548830,55.9840011596679700,55,98,101,78,82,15537,0,0,0,0,2147122843,2147774445,2147574134,2147568338,73,3,13,48818
1353118648,5811,999.7700195312500000,37.8595008850097660,569.8945922851562000,4.1788368225097660,55.9404792785644500,56,97,100,78,82,15527,0,0,0,0,2147126043,2147775798,2147571849,2147566427,57,3,13,31937
1353122248,5809,998.4199829101562000,38.6436614990234400,570.9567871093750000,4.1458230018615720,55.8327598571777340,55,102,102,79,82,15528,0,0,0,0,2147123812,2147773156,2147575149,2147569572,3501,3,13,21097
1353125848,5810,997.9699707031250000,38.8591308593750000,571.3519287109375000,4.1335411071777340,55.8022193908691400,54,98,100,78,83,15527,0,0,0,0,2147123382,2147774080,2147575030,2147570230,3175,3,13,55283
1353129448,5809,995.6500244140625000,38.7210388183593750,571.1036987304688000,4.1412577629089355,55.8176383972168000,54,98,100,78,82,15522,0,0,0,0,2147121462,2147776914,2147576630,2147570770,65,3,13,10574
1353133048,5809,1001.0800170898438000,38.5665397644043000,571.1845703125000000,4.1387419700622560,55.8417091369628900,55,98,99,78,83,15522,0,0,0,0,2147124790,2147773952,2147574528,2147570797,41,3,13,18493
1353136648,5811,996.9899902343750000,38.7393112182617200,571.1646118164062000,4.1393661499023440,55.8154602050781250,55,98,102,79,82,15522,0,0,0,0,2147121133,2147772699,2147571986,2147568649,3271,3,13,16576
1353140248,5808,995.4400024414062000,38.9602317810058600,571.1790161132812000,4.1389160156250000,55.7833290100097660,56,99,100,78,82,15521,0,0,0,0,2147121024,2147773641,2147571264,2147571629,179,3,13,51017
1353143848,5807,1002.8699951171875000,38.7450294494628900,571.1555175781250000,4.1396470069885250,55.8133392333984400,55,98,102,77,82,15518,0,0,0,0,2147122660,2147771108,2147571474,2147568045,3585,3,13,62388
1353147448,5808,999.6400146484375000,39.0142707824707000,571.1715698242188000,4.1391468048095700,55.7774009704589840,54,99,100,77,83,15520,0,0,0,0,2147124854,2147773933,2147575890,2147565814,170,3,13,38945
1353151048,5811,999.2299804687500000,38.6502113342285160,571.3121948242188000,4.1347770690917970,55.8289985656738300,55,100,101,79,82,15520,0,0,0,0,2147119378,2147769106,2147571337,2147567296,3536,3,13,5040
1353154648,5810,996.3099975585938000,38.8469581604003900,571.4711914062500000,4.1298332214355470,55.8030204772949200,55,100,101,78,81,15519,0,0,0,0,2147122980,2147774308,2147572800,2147569225,706,3,13,9303
1353158248,5810,991.0999755859375000,38.6187782287597660,572.5117187500000000,4.0974831581115720,55.8483886718750000,55,98,99,78,83,15519,0,0,0,0,2147119113,2147777901,2147572589,2147568283,606,3,13,18737
1353161848,5809,1001.1900024414062000,39.3283615112304700,571.7324829101562000,4.1217079162597660,55.7320404052734400,55,98,101,77,82,15519,0,0,0,0,2147121417,2147775195,2147573430,2147567259,3508,3,13,2647
1353165448,5809,996.1099853515625000,39.2720108032226560,571.8007202148438000,4.1195912361145020,55.7419395446777340,54,97,99,78,82,15519,0,0,0,0,2147121481,2147775506,2147572324,2147569581,3429,3,13,27037
1353169048,5810,996.1900024414062000,38.8107681274414060,572.0100708007812000,4.1130771636962890,55.8150405883789060,55,97,102,77,82,15519,0,0,0,0,2147127451,2147768777,2147569307,2147567213,139,3,13,12301
1353172648,5810,1002.4899902343750000,39.3471603393554700,571.8231201171875000,4.1188931465148930,55.7356414794921900,55,99,101,76,83,15515,0,0,0,0,2147123300,2147774491,2147571072,2147568923,3284,3,13,48832
1353176248,5810,1004.3499755859375000,39.0169792175293000,571.0396118164062000,4.1432509422302250,55.7728996276855500,54,99,100,79,82,15516,0,0,0,0,2147123712,2147775643,2147571958,2147569600,788,3,13,30467
1353179848,5810,1006.9899902343750000,39.0342597961425800,570.9152832031250000,4.1471118927001950,55.7710113525390600,55,98,101,77,83,15513,0,0,0,0,2147122624,2147771465,2147566765,2147570066,1122,3,13,63891
1353180355,5807,1006.4099731445312000,38.9229087829589840,570.8217773437500000,4.1500191688537600,55.7859497070312500,55,99,101,78,83,15516,0,0,0,0,2147123766,2147777115,2147572909,2147570633,3334,2,13,64138
